Stations météo

réclame
Mon MeteoGroup
Lerida, Espagne (8171): Température de l'air & dewpoint: 14.09.2020 18:00:00 - 20.09.2020 18:00:00 (CEST)Lerida, Espagne (8171): Vitesse du vent: 14.09.2020 18:00:00 - 20.09.2020 18:00:00 (CEST)Lerida, Espagne (8171): Direction du vent: 14.09.2020 18:00:00 - 20.09.2020 18:00:00 (CEST)Lerida, Espagne (8171): reduced air pressure: 14.09.2020 18:00:00 - 20.09.2020 18:00:00 (CEST)Lerida, Espagne (8171): visibility: 14.09.2020 18:00:00 - 20.09.2020 18:00:00 (CEST)Lerida, Espagne (8171): Quantités de précipitations: 14.09.2020 18:00:00 - 20.09.2020 18:00:00 (CEST)
Date & Time tt [°C] td [°C] ff [km/h] ff [knt] dd ppp [hPa] vv [km] rr [mm]
20.09.2020 18:00:00 28,3 13,0 8 4 W 1013,4 20 0,0
20.09.2020 17:00:00 27,9 13,0 5 3 WSW 1013,6 20 -
20.09.2020 16:00:00 27,4 13,0 9 5 WSW 1014,0 20 0,0
20.09.2020 15:00:00 26,7 13,4 9 5 SW 1014,6 19 0,0
20.09.2020 14:00:00 25,9 13,7 11 6 W 1015,2 20 -
20.09.2020 13:00:00 25,3 12,5 16 9 W 1015,6 20 0,0
20.09.2020 12:00:00 23,2 14,5 15 8 W 1016,4 20 0,0
20.09.2020 11:00:00 21,1 14,5 9 5 WSW 1016,6 20 -
20.09.2020 10:00:00 19,4 14,0 8 4 WSW 1016,4 20 0,0
20.09.2020 09:00:00 16,6 14,2 2 1 SW 1016,5 20 0,0
20.09.2020 08:00:00 15,2 13,4 8 4 WSW 1016,2 20 -
20.09.2020 07:00:00 15,5 13,3 5 3 WSW 1016,0 19 0,0
20.09.2020 06:00:00 16,0 13,7 5 3 SW 1015,9 20 0,0
20.09.2020 05:00:00 16,9 13,6 4 2 S 1015,7 20 -
20.09.2020 04:00:00 17,1 14,0 5 3 W 1015,8 20 0,0
20.09.2020 03:00:00 17,9 14,2 9 5 W 1015,8 7 0,0
20.09.2020 02:00:00 18,2 14,1 5 3 SW 1015,6 20 -
20.09.2020 01:00:00 19,2 14,2 5 3 SSW 1015,3 20 0,0
20.09.2020 00:00:00 21,0 14,2 9 5 W 1015,0 20 0,0
19.09.2020 23:00:00 22,6 13,6 11 6 W 1014,8 20 -
19.09.2020 22:00:00 23,2 13,4 9 5 WNW 1014,2 20 0,0
19.09.2020 21:00:00 23,1 13,3 9 5 WNW 1013,5 20 0,0
19.09.2020 20:00:00 24,8 12,7 9 5 WNW 1012,7 20 -
19.09.2020 19:00:00 26,4 13,5 13 7 WNW 1012,2 20 0,0
19.09.2020 18:00:00 27,9 12,7 11 6 NW 1011,6 20 0,0
19.09.2020 17:00:00 28,3 13,0 9 5 W 1011,7 20 -
19.09.2020 16:00:00 28,2 13,7 11 6 WSW 1012,2 20 0,0
19.09.2020 15:00:00 26,9 14,6 9 5 WSW 1012,8 20 0,0
19.09.2020 14:00:00 26,4 15,1 11 6 SW 1013,8 17 -
19.09.2020 13:00:00 25,9 17,5 9 5 SSW 1014,0 20 0,0
19.09.2020 12:00:00 24,6 17,8 5 3 E 1014,6 19 0,0
19.09.2020 11:00:00 22,7 18,9 8 4 E 1014,9 19 -
19.09.2020 10:00:00 21,4 18,6 9 5 NE 1014,8 17 0,0
19.09.2020 09:00:00 18,9 17,7 5 3 N 1014,7 6 0,0
19.09.2020 08:00:00 18,4 17,6 5 3 N 1014,4 - -
19.09.2020 07:00:00 18,4 17,6 5 3 NE 1014,3 4,8 0,6
19.09.2020 06:00:00 18,8 17,5 4 2 ENE 1015,3 4,9 0,6
19.09.2020 05:00:00 18,8 16,9 5 3 NE 1014,5 9 -
19.09.2020 04:00:00 19,0 17,0 9 5 NNE 1014,9 10 0,0
19.09.2020 03:00:00 18,6 16,9 9 5 NNE 1015,5 7 0,0
19.09.2020 02:00:00 19,1 16,9 5 3 NNE 1015,5 9 -
19.09.2020 01:00:00 20,0 17,2 8 4 NE 1015,7 12 0,0
19.09.2020 00:00:00 20,7 17,5 8 4 NNE 1016,0 16 0,0
18.09.2020 23:00:00 21,3 17,9 8 4 NE 1015,5 18 -
18.09.2020 22:00:00 22,7 18,2 4 2 N 1015,2 19 0,0
18.09.2020 21:00:00 23,5 17,9 4 2 NNE 1014,9 20 0,0
18.09.2020 20:00:00 24,2 17,7 8 4 ESE 1014,3 20 -
18.09.2020 19:00:00 24,9 17,4 8 4 S 1013,8 20 0,0
18.09.2020 18:00:00 24,4 18,1 5 3 E 1013,5 20 0,0
18.09.2020 17:00:00 24,2 17,7 18 10 ENE 1014,6 20 -
18.09.2020 16:00:00 23,9 18,3 18 10 ENE 1015,1 19 0,0
18.09.2020 15:00:00 22,8 18,1 18 10 ENE 1015,8 15 0,0
18.09.2020 14:00:00 23,7 19,0 21 11 ENE 1016,0 25 -
18.09.2020 13:00:00 22,4 20,5 15 8 E 1016,7 11 0,2
18.09.2020 12:00:00 20,7 18,6 11 6 NE 1016,7 4,4 1,0
18.09.2020 11:00:00 21,0 17,4 5 3 NNE 1017,3 7 -
18.09.2020 10:00:00 21,2 16,2 8 4 NE 1016,1 10 0,0
18.09.2020 09:00:00 21,5 14,2 9 5 NE 1015,6 19 0,0
18.09.2020 08:00:00 21,0 13,7 9 5 NNE 1015,3 20 -
18.09.2020 07:00:00 20,9 13,1 8 4 NNE 1015,0 20 0,0
18.09.2020 06:00:00 20,8 12,7 5 3 NE 1014,7 20 0,0
18.09.2020 05:00:00 20,6 12,6 8 4 NE 1014,8 20 -
18.09.2020 04:00:00 20,2 13,2 8 4 NE 1015,1 20 0,0
18.09.2020 03:00:00 20,4 14,5 8 4 NNE 1015,0 19 0,0
18.09.2020 02:00:00 21,1 14,3 9 5 NNE 1015,2 20 -
18.09.2020 01:00:00 21,7 15,1 5 3 NNE 1016,0 20 0,0
18.09.2020 00:00:00 22,2 15,8 5 3 ENE 1015,5 20 0,0
17.09.2020 23:00:00 23,7 15,7 8 4 NNE 1015,2 19 -
17.09.2020 22:00:00 25,1 15,4 8 4 ENE 1014,8 20 0,0
17.09.2020 21:00:00 26,9 11,4 8 4 ESE 1014,0 20 0,0
17.09.2020 20:00:00 27,8 13,0 9 5 ESE 1013,8 20 -
17.09.2020 19:00:00 29,1 13,7 8 4 SSE 1013,6 18 0,0
17.09.2020 18:00:00 30,4 13,7 4 2 ESE 1013,6 20 0,0
17.09.2020 17:00:00 30,4 13,2 8 4 NE 1013,7 20 -
17.09.2020 16:00:00 30,1 13,0 5 3 E 1014,1 20 0,0
17.09.2020 15:00:00 28,5 12,4 5 3 NE 1014,8 20 0,0
17.09.2020 14:00:00 27,6 14,2 5 3 N 1015,5 20 -
17.09.2020 13:00:00 27,4 15,1 9 5 NE 1015,6 20 0,0
17.09.2020 12:00:00 25,3 15,0 9 5 NE 1016,2 20 0,0
17.09.2020 11:00:00 21,9 15,3 5 3 NE 1016,8 19 -
17.09.2020 10:00:00 20,4 15,4 9 5 NE 1016,5 19 0,0
17.09.2020 09:00:00 19,1 15,4 8 4 NE 1016,5 16 0,0
17.09.2020 08:00:00 18,3 15,2 8 4 NNE 1016,7 14 -
17.09.2020 07:00:00 18,3 15,4 8 4 NNE 1016,6 13 0,0
17.09.2020 06:00:00 19,5 15,2 8 4 NNE 1016,6 19 0,0
17.09.2020 05:00:00 19,2 15,5 5 3 N 1016,7 16 -
17.09.2020 04:00:00 19,2 15,9 5 3 N 1017,1 15 0,0
17.09.2020 03:00:00 19,9 15,9 5 3 N 1017,3 18 0,0
17.09.2020 02:00:00 20,5 15,9 5 3 NNE 1017,6 18 -
17.09.2020 01:00:00 21,6 16,3 8 4 NNE 1017,7 18 0,0
17.09.2020 00:00:00 22,3 16,6 4 2 NE 1017,7 19 0,0
16.09.2020 23:00:00 23,3 16,8 5 3 NE 1017,7 19 -
16.09.2020 22:00:00 24,3 17,1 8 4 NNE 1017,0 19 0,0
16.09.2020 21:00:00 27,1 15,8 8 4 SE 1016,0 20 0,0
16.09.2020 20:00:00 28,8 16,7 8 4 S 1015,3 20 -
16.09.2020 19:00:00 31,2 16,8 8 4 S 1014,7 20 0,0
16.09.2020 18:00:00 33,3 13,4 4 2 S 1014,6 20 0,0
16.09.2020 17:00:00 33,9 13,4 5 3 SW 1014,9 20 -
16.09.2020 16:00:00 33,0 14,1 5 3 SSW 1015,6 20 0,0
16.09.2020 15:00:00 32,1 16,0 4 2 S 1016,5 18 0,0
16.09.2020 14:00:00 30,0 16,8 4 2 NW 1017,6 20 -
16.09.2020 13:00:00 28,9 17,1 5 3 WSW 1018,3 20 0,0
16.09.2020 12:00:00 26,8 16,7 4 2 NE 1019,1 20 0,0
16.09.2020 11:00:00 24,6 16,1 5 3 ENE 1019,7 20 -
16.09.2020 10:00:00 21,9 15,3 5 3 ENE 1019,9 19 0,0
16.09.2020 09:00:00 19,2 14,5 2 1 NE 1020,2 17 0,0
16.09.2020 08:00:00 17,4 14,3 5 3 NE 1019,8 19 -
16.09.2020 07:00:00 17,9 15,0 4 2 NE 1019,4 14 0,0
16.09.2020 06:00:00 18,7 15,2 5 3 NE 1019,5 17 0,0
16.09.2020 05:00:00 19,4 15,9 5 3 NE 1019,5 17 -
16.09.2020 04:00:00 20,0 16,0 8 4 NNE 1019,5 19 0,0
16.09.2020 03:00:00 20,6 16,4 8 4 NNE 1019,7 17 0,0
16.09.2020 02:00:00 21,4 16,8 8 4 NNE 1019,9 19 -
16.09.2020 01:00:00 22,2 17,1 5 3 NE 1020,0 18 0,0
16.09.2020 00:00:00 22,7 16,9 8 4 NNE 1019,9 19 0,0
15.09.2020 23:00:00 24,4 15,6 8 4 NNE 1019,5 20 -
15.09.2020 22:00:00 25,0 15,3 4 2 E 1019,1 20 0,0
15.09.2020 21:00:00 27,0 15,1 5 3 SW 1018,4 20 0,0
15.09.2020 20:00:00 29,5 14,5 5 3 S 1017,5 35 -
15.09.2020 19:00:00 32,6 12,3 2 1 SSW 1017,1 20 0,0
15.09.2020 18:00:00 32,9 11,4 4 2 WNW 1017,2 20 0,0
15.09.2020 17:00:00 32,7 12,3 8 4 WNW 1017,5 20 -
15.09.2020 16:00:00 32,1 12,3 5 3 WSW 1018,3 20 0,0
15.09.2020 15:00:00 30,5 14,2 8 4 SW 1019,1 20 0,0
15.09.2020 14:00:00 29,7 14,7 8 4 SSW 1020,0 30 -
15.09.2020 13:00:00 27,9 15,2 5 3 SE 1021,0 20 0,0
15.09.2020 12:00:00 26,1 15,5 5 3 S 1021,8 19 0,0
15.09.2020 11:00:00 23,4 13,3 4 2 E 1022,1 25 -
15.09.2020 10:00:00 22,9 13,1 5 3 E 1021,6 20 0,0
15.09.2020 09:00:00 18,5 13,8 8 4 NNW 1021,5 19 0,0
15.09.2020 08:00:00 17,9 12,8 2 1 ESE 1021,5 20 -
15.09.2020 07:00:00 17,7 12,4 8 4 NE 1020,8 20 0,0
15.09.2020 06:00:00 18,1 12,5 8 4 NNE 1021,7 19 0,0
15.09.2020 05:00:00 18,5 12,9 9 5 NNE 1021,9 20 -
15.09.2020 04:00:00 18,5 12,9 8 4 NE 1022,1 20 0,0
15.09.2020 03:00:00 18,9 13,3 9 5 NE 1022,3 20 0,0
15.09.2020 02:00:00 19,7 13,2 9 5 NNE 1022,5 20 -
15.09.2020 01:00:00 20,6 13,5 8 4 NE 1022,3 20 0,0
15.09.2020 00:00:00 21,4 13,6 8 4 NNE 1021,6 20 0,0
14.09.2020 23:00:00 22,5 13,0 5 3 NNE 1021,5 20 -
14.09.2020 22:00:00 23,9 12,2 8 4 NE 1021,1 20 0,0
14.09.2020 21:00:00 26,0 11,4 4 2 S 1020,5 20 0,0
14.09.2020 20:00:00 27,9 11,4 8 4 S 1019,8 20 -
14.09.2020 19:00:00 30,1 11,1 11 6 S 1019,5 20 0,0
14.09.2020 18:00:00 31,5 12,8 9 5 SSW 1019,4 20 0,0

tt = Température de l'air
td = dewpoint
ff = Vitesse du vent
dd = Direction du vent
ppp = reduced air pressure
vv = visibility
rr = Quantités de précipitations

stations d'obs. à proximité